CW6391 Weather Reports


Display with metric or nautical units.
time (UTC)temp
F
wind
direction
speed
MPH
gust
MPH
rain 1hr
in
rain 24hr
in
rain mn
in
humidity
%
barometer
mb
20260505011158 61 310 1.0 4.0 0.00 0.00 0.00 69 1009.7
20260505010704 61 323 2.0 5.0 0.00 0.00 0.00 67 1009.7
20260505010158 61 314 0.0 4.0 0.00 0.00 0.00 66 1009.7
20260505005701 62 310 1.0 5.0 0.00 0.00 0.00 65 1009.7
20260505005158 62 303 1.0 2.0 0.00 0.00 0.00 64 1009.7
20260505004701 62 292 1.0 4.0 0.00 0.00 0.00 62 1009.7
20260505004204 62 300 2.0 5.0 0.00 0.00 0.00 61 1009.7
20260505003704 62 322 1.0 6.0 0.00 0.00 0.00 61 1009.7
20260505003158 62 310 3.0 5.0 0.00 0.00 0.00 61 1009.7
20260505002704 62 287 1.0 4.0 0.00 0.00 0.00 61 1009.7
20260505002201 62 302 2.0 4.0 0.00 0.00 0.00 61 1009.7
20260505001658 62 311 1.0 7.0 0.00 0.00 0.00 61 1009.7
20260505001157 62 319 1.0 4.0 0.00 0.00 0.00 61 1010.0
20260505000704 62 303 1.0 4.0 0.00 0.00 0.00 61 1010.0
20260505000204 62 312 1.0 3.0 0.00 0.00 0.00 61 1010.0
20260504235701 62 291 1.0 5.0 0.00 0.00 0.00 61 1010.0
20260504235158 62 281 2.0 5.0 0.00 0.00 0.00 61 1010.0
20260504234701 62 319 1.0 5.0 0.00 0.00 0.00 61 1010.0
20260504234204 62 317 2.0 4.0 0.00 0.00 0.00 61 1010.0
20260504233658 62 307 2.0 4.0 0.00 0.00 0.00 61 1010.0
20260504233158 61 268 1.0 3.0 0.00 0.00 0.00 61 1010.0
20260504232658 61 283 2.0 4.0 0.00 0.00 0.00 61 1010.0
20260504232204 61 261 1.0 5.0 0.00 0.00 0.00 61 1010.4
20260504231704 61 277 2.0 5.0 0.00 0.00 0.00 61 1010.4
20260504231158 61 296 1.0 4.0 0.00 0.00 0.00 61 1010.4
20260504230658 61 303 1.0 4.0 0.00 0.00 0.00 60 1010.4
20260504230158 61 315 2.0 5.0 0.00 0.00 0.00 60 1010.4
20260504225658 61 309 2.0 5.0 0.00 0.00 0.00 60 1010.4
20260504225158 62 317 2.0 6.0 0.00 0.00 0.00 60 1010.4
20260504224658 62 304 1.0 3.0 0.00 0.00 0.00 60 1010.4
20260504224204 62 335 1.0 3.0 0.00 0.00 0.00 60 1010.4
20260504223701 62 314 1.0 5.0 0.00 0.00 0.00 60 1010.4
20260504223204 62 308 2.0 4.0 0.00 0.00 0.00 60 1010.4
20260504222658 62 320 2.0 5.0 0.00 0.00 0.00 60 1010.4
20260504222201 62 318 3.0 5.0 0.00 0.00 0.00 59 1010.8
20260504221658 62 317 2.0 5.0 0.00 0.00 0.00 59 1010.8
20260504221158 62 306 2.0 5.0 0.00 0.00 0.00 58 1010.8
20260504220701 63 326 2.0 5.0 0.00 0.00 0.00 57 1010.8
20260504220158 63 311 2.0 5.0 0.00 0.00 0.00 57 1010.8
20260504215701 63 292 1.0 4.0 0.00 0.00 0.00 56 1010.8
20260504215157 63 272 1.0 3.0 0.00 0.00 0.00 55 1010.8
20260504214701 63 271 1.0 3.0 0.00 0.00 0.00 55 1010.8
20260504214204 64 297 0.0 3.0 0.00 0.00 0.00 55 1010.8
20260504213658 64 265 0.0 2.0 0.00 0.00 0.00 55 1010.8
20260504213157 64 302 1.0 3.0 0.00 0.00 0.00 55 1010.8
20260504212703 64 294 0.0 2.0 0.00 0.00 0.00 54 1010.8
20260504212157 64 334 1.0 2.0 0.00 0.00 0.00 54 1010.8
20260504211658 64 314 0.0 2.0 0.00 0.00 0.00 54 1010.8
20260504211157 64 327 1.0 2.0 0.00 0.00 0.00 54 1010.8
20260504210704 64 275 0.0 2.0 0.00 0.00 0.00 53 1010.8
20260504210158 64 269 1.0 2.0 0.00 0.00 0.00 53 1010.8
20260504205704 64 290 0.0 2.0 0.00 0.00 0.00 53 1010.8
20260504205201 64 315 0.0 2.0 0.00 0.00 0.00 52 1010.8
20260504204657 65 289 0.0 2.0 0.00 0.00 0.00 52 1010.8
20260504204204 65 247 0.0 3.0 0.00 0.00 0.00 52 1010.8
20260504203701 65 275 1.0 2.0 0.00 0.00 0.00 51 1010.8
20260504203200 65 264 1.0 2.0 0.00 0.00 0.00 50 1010.8
20260504202658 65 301 0.0 2.0 0.00 0.00 0.00 50 1010.8
20260504202158 65 266 0.0 3.0 0.00 0.00 0.00 49 1010.8
20260504201657 66 315 0.0 2.0 0.00 0.00 0.00 49 1010.8
20260504201200 66 310 1.0 3.0 0.00 0.00 0.00 48 1010.8
20260504200701 66 332 1.0 2.0 0.00 0.00 0.00 48 1010.8
20260504200158 66 310 1.0 2.0 0.00 0.00 0.00 48 1011.1
20260504195704 67 295 1.0 2.0 0.00 0.00 0.00 47 1011.1
20260504195207 67 256 0.0 2.0 0.00 0.00 0.00 47 1011.1
20260504194658 67 296 0.0 1.0 0.00 0.00 0.00 46 1011.1
20260504194200 67 244 0.0 2.0 0.00 0.00 0.00 45 1011.1
20260504193657 68 273 1.0 2.0 0.00 0.00 0.00 44 1011.1
20260504193204 68 257 0.0 1.0 0.00 0.00 0.00 44 1011.1
20260504192704 68 325 0.0 2.0 0.00 0.00 0.00 43 1011.1
20260504192201 68 290 0.0 1.0 0.00 0.00 0.00 43 1011.1
20260504191658 68 294 0.0 1.0 0.00 0.00 0.00 43 1011.1
20260504191201 68 240 0.0 2.0 0.00 0.00 0.00 42 1010.8
20260504190701 69 244 0.0 1.0 0.00 0.00 0.00 42 1010.8
20260504190201 69 220 0.0 2.0 0.00 0.00 0.00 42 1010.8
20260504185658 69 252 1.0 1.0 0.00 0.00 0.00 42 1010.8
20260504185158 69 263 0.0 2.0 0.00 0.00 0.00 41 1010.8
20260504184657 69 311 1.0 2.0 0.00 0.00 0.00 40 1010.8
20260504184157 69 300 0.0 2.0 0.00 0.00 0.00 40 1010.8
20260504183657 69 330 1.0 2.0 0.00 0.00 0.00 40 1010.8
20260504183201 69 336 1.0 2.0 0.00 0.00 0.00 40 1010.8
20260504182704 70 295 0.0 2.0 0.00 0.00 0.00 40 1010.8
20260504182207 70 306 0.0 2.0 0.00 0.00 0.00 39 1010.8
20260504181701 70 313 0.0 2.0 0.00 0.00 0.00 39 1011.1
20260504181158 71 319 1.0 3.0 0.00 0.00 0.00 38 1011.1
20260504180701 71 297 0.0 2.0 0.00 0.00 0.00 38 1011.1
20260504180158 71 265 0.0 2.0 0.00 0.00 0.00 38 1011.1
20260504175704 71 243 1.0 5.0 0.00 0.00 0.00 38 1011.1
20260504175201 71 305 1.0 5.0 0.00 0.00 0.00 37 1010.8
20260504174707 71 304 1.0 5.0 0.00 0.00 0.00 37 1010.8
20260504174158 71 312 2.0 5.0 0.00 0.00 0.00 37 1010.8
20260504173701 71 317 1.0 4.0 0.00 0.00 0.00 36 1010.8
20260504173158 72 325 2.0 4.0 0.00 0.00 0.00 36 1011.1
20260504172657 72 279 1.0 4.0 0.00 0.00 0.00 36 1011.1
20260504172158 71 309 1.0 4.0 0.00 0.00 0.00 36 1011.1
20260504171700 72 312 1.0 4.0 0.00 0.00 0.00 36 1011.1
20260504171158 72 301 0.0 4.0 0.00 0.00 0.00 35 1010.8
20260504170658 72 322 2.0 4.0 0.00 0.00 0.00 35 1010.8
20260504170158 72 338 2.0 5.0 0.00 0.00 0.00 35 1010.8
20260504160158 75 304 3.0 6.0 0.00 0.00 0.00 31 1011.1
20260504150701 77 329 2.0 4.0 0.00 0.00 0.00 28 1011.4
20260504150158 78 229 1.0 3.0 0.00 0.00 0.00 27 1011.4
20260504141201 78 317 3.0 6.0 0.00 0.00 0.00 27 1011.4
20260504140704 78 191 0.0 5.0 0.00 0.00 0.00 28 1011.4
20260504140201 76 300 2.0 5.0 0.00 0.00 0.00 29 1011.4
20260504130658 79 199 2.0 7.0 0.00 0.00 0.00 25 1012.1
20260504130158 79 238 3.0 7.0 0.00 0.00 0.00 25 1012.1
20260504120158 77 291 2.0 6.0 0.00 0.00 0.00 26 1012.5
20260504110704 73 257 1.0 8.0 0.00 0.00 0.00 29 1013.2
20260504110201 73 296 3.0 8.0 0.00 0.00 0.00 29 1013.2
20260504100201 74 233 1.0 6.0 0.00 0.00 0.00 28 1013.9
20260504081658 69 230 2.0 5.0 0.00 0.00 0.00 33 1014.2
20260504081158 67 206 1.0 8.0 0.00 0.00 0.00 34 1014.2
20260504080700 67 236 2.0 7.0 0.00 0.00 0.00 34 1014.2
20260504080201 67 242 2.0 7.0 0.00 0.00 0.00 34 1014.2
20260504070157 67 137 0.0 1.0 0.00 0.00 0.00 40 1014.2
20260504060157 59 200 1.0 2.0 0.00 0.00 0.00 55 1013.9
20260504050701 54 105 1.0 3.0 0.00 0.00 0.00 66 1013.5
20260504050158 54 115 1.0 1.0 0.00 0.00 0.00 65 1013.5
20260504045703 54 66 1.0 1.0 0.00 0.00 0.00 65 1013.5
20260504045201 54 212 0.0 2.0 0.00 0.00 0.00 66 1013.9
20260504044657 53 260 1.0 2.0 0.00 0.00 0.00 66 1013.9
20260504044158 53 183 0.0 2.0 0.00 0.00 0.00 67 1013.5
20260504043704 53 242 1.0 2.0 0.00 0.00 0.00 68 1013.5
20260504043158 53 248 1.0 1.0 0.00 0.00 0.00 68 1013.5
20260504042658 53 170 0.0 2.0 0.00 0.00 0.00 70 1013.5
20260504042204 53 211 0.0 2.0 0.00 0.00 0.00 70 1013.5
20260504041701 53 109 1.0 2.0 0.00 0.00 0.00 70 1013.5
20260504041157 53 93 1.0 2.0 0.00 0.00 0.00 70 1013.5
20260504040657 53 214 0.0 1.0 0.00 0.00 0.00 70 1013.5
20260504040157 53 199 0.0 1.0 0.00 0.00 0.00 70 1013.5
20260504035701 53 190 0.0 2.0 0.00 0.00 0.00 70 1013.2
20260504035157 53 91 1.0 1.0 0.00 0.00 0.00 70 1013.5
20260504034700 54 150 0.0 2.0 0.00 0.00 0.00 70 1013.5
20260504034157 54 107 1.0 3.0 0.00 0.00 0.00 70 1013.5
20260504033700 54 75 2.0 3.0 0.00 0.00 0.00 70 1013.5
20260504033201 54 136 0.0 2.0 0.00 0.00 0.00 69 1013.5
20260504032657 54 161 0.0 1.0 0.00 0.00 0.00 70 1013.5
20260504032157 54 91 0.0 1.0 0.00 0.00 0.00 70 1013.5
20260504031703 54 221 0.0 1.0 0.00 0.00 0.00 69 1013.5
20260504031200 55 123 0.0 3.0 0.00 0.00 0.00 68 1013.5
20260504030658 55 96 1.0 3.0 0.00 0.00 0.00 67 1013.5
20260504030204 55 214 0.0 1.0 0.00 0.00 0.00 64 1013.5
20260504025701 55 332 0.0 1.0 0.00 0.00 0.00 64 1013.5
20260504025157 55 202 0.0 1.0 0.00 0.00 0.00 63 1013.5
20260504024657 55 221 1.0 2.0 0.00 0.00 0.00 63 1013.5
20260504024204 55 191 0.0 2.0 0.00 0.00 0.00 63 1013.5
20260504023658 56 228 1.0 2.0 0.00 0.00 0.00 63 1013.2
20260504023203 56 253 0.0 2.0 0.00 0.00 0.00 65 1013.2
20260504022704 56 303 0.0 1.0 0.00 0.00 0.00 67 1013.2
20260504022200 56 219 0.0 1.0 0.00 0.00 0.00 66 1013.2
20260504021700 56 243 0.0 1.0 0.00 0.00 0.00 66 1013.2
20260504021157 56 169 0.0 1.0 0.00 0.00 0.00 65 1013.2
20260504020657 56 168 0.0 2.0 0.00 0.00 0.00 65 1013.2
20260504020158 56 124 1.0 2.0 0.00 0.00 0.00 65 1013.2
20260504015701 57 114 0.0 1.0 0.00 0.00 0.00 64 1013.2
20260504015158 57 139 0.0 1.0 0.00 0.00 0.00 63 1013.2
20260504014707 57 154 0.0 1.0 0.00 0.00 0.00 63 1013.2
20260504014158 57 109 0.0 2.0 0.00 0.00 0.00 63 1013.2
20260504013658 58 86 1.0 2.0 0.00 0.00 0.00 63 1013.2
20260504013157 58 103 1.0 2.0 0.00 0.00 0.00 62 1013.2
20260504012701 58 122 0.0 1.0 0.00 0.00 0.00 62 1013.5
20260504012157 58 136 0.0 2.0 0.00 0.00 0.00 61 1013.5
20260504011657 58 88 0.0 2.0 0.00 0.00 0.00 60 1013.5